This is the latest recevied weather packets stored in our database for station/object HB9TVK-13. If no packets are shown the sender has not sent any weather packets the latest 10 day(s).
| Time | Temp. | Humidity | Pressure | Rain* | Wind** | Luminosity | Snow |
|---|---|---|---|---|---|---|---|
| 1777055237 | 15° C | 54% | 1019.5 hPa | 0 mm | - | - | - |
| 1777054637 | 16.67° C | 48% | 1019.4 hPa | 0 mm | - | - | - |
| 1777054037 | 17.78° C | 45% | 1019.4 hPa | 0 mm | - | - | - |
| 1777053438 | 19.44° C | 42% | 1019.4 hPa | 0 mm | - | - | - |
| 1777052836 | 20.56° C | 36% | 1019.4 hPa | 0 mm | - | - | - |
| 1777052236 | 21.67° C | 31% | 1019.3 hPa | 0 mm | - | - | - |
| 1777051636 | 21.67° C | 27% | 1019.3 hPa | 0 mm | - | - | - |
| 1777051037 | 22.22° C | 25% | 1019.3 hPa | 0 mm | - | - | - |
| 1777050437 | 21.67° C | 23% | 1019.3 hPa | 0 mm | - | - | - |
| 1777049838 | 21.67° C | 25% | 1019.4 hPa | 0 mm | - | - | - |
| 1777049238 | 21.67° C | 24% | 1019.4 hPa | 0 mm | - | - | - |
| 1777048635 | 21.67° C | 24% | 1019.5 hPa | 0 mm | - | - | - |
| 1777048036 | 22.78° C | 26% | 1019.5 hPa | 0 mm | - | - | - |
| 1777047436 | 22.22° C | 26% | 1019.6 hPa | 0 mm | - | - | - |
| 1777046837 | 22.22° C | 25% | 1019.6 hPa | 0 mm | - | - | - |
| 1777046237 | 22.22° C | 27% | 1019.7 hPa | 0 mm | - | - | - |
| 1777045638 | 21.67° C | 23% | 1019.7 hPa | 0 mm | - | - | - |
| 1777045035 | 22.22° C | 25% | 1019.8 hPa | 0 mm | - | - | - |
| 1777044436 | 22.22° C | 24% | 1019.8 hPa | 0 mm | - | - | - |
| 1777043836 | 22.22° C | 24% | 1019.9 hPa | 0 mm | - | - | - |
| 1777043236 | 21.67° C | 25% | 1020 hPa | 0 mm | - | - | - |
| 1777042637 | 21.11° C | 27% | 1020 hPa | 0 mm | - | - | - |
| 1777042037 | 21.11° C | 24% | 1020 hPa | 0 mm | - | - | - |
| 1777041438 | 21.67° C | 23% | 1020.2 hPa | 0 mm | - | - | - |
| 1777040835 | 21.67° C | 23% | 1020.3 hPa | 0 mm | - | - | - |
* Rain latest hour (hover to see other rain measurements)
** Current wind speed in m/s (hover to see current wind gust speed)